Brightest
NORAD ID: 25407
Int'l Code: 1998-045B
Perigee: 842.8 km
Apogee: 852.6 km
Inclination: 71.0°
Period: 101.7 min
Semi major axis: 7,218.7 km
Launch date: July 28, 1998
Source: Commonwealth of Independent States (former USSR) (CIS)
Note: This is a ROCKET BODY
Two Line Element Set (TLE):
1 25407U 98045B 10249.21160829 -.00000224 00000-0 -89966-4 0 4143
2 25407 071.0088 203.5374 0006771 006.8423 353.2799 14.15515886625782
More details about SL-16 R/B